Theta_e
344 345 346 343 343 343 345 347 346 343 345 348 346 345 343 346 345 343 345 345 344 347 346 344 346 344 345 343 343 343 342 341 340
341 344 346 347 346 344 346 346 347 343 342 346 347 345 342 341 342 344 345 344 343 345 347 347 348 348 346 347 344 343 344 347 344
344 346 347 348 348 347 348 345 343 345 345 339 347 348 344 343 341 342 342 343 345 343 345 348 346 349 348 346 346 347 345 344 345
345 345 346 347 348 349 348 346 345 348 349 347 347 348 346 344 345 342 341 342 342 344 345 345 346 345 347 348 344 346 346 348 344
342 343 344 345 348 350 349 349 347 350 351 351 349 346 348 346 344 343 341 342 342 342 344 346 346 346 348 346 344 344 347 345 346
343 344 344 345 347 347 349 351 350 349 348 350 348 345 349 347 347 346 345 342 340 342 343 346 345 344 345 344 338 340 349 344 341
343 343 346 349 349 349 349 350 351 352 351 350 350 350 351 349 347 348 347 346 345 339 341 344 344 344 344 344 339 339 341 339 341
343 346 348 348 348 347 340 339 346 349 351 352 351 350 350 348 346 342 347 347 345 345 341 343 343 343 341 341 345 345 344 345 345
343 347 347 347 346 345 341 340 342 347 349 350 351 350 347 349 346 336 347 346 345 346 346 347 344 344 346 345 344 344 345 344 345
342 344 346 346 345 336 340 343 345 347 348 348 347 349 348 348 347 347 347 345 340 343 346 346 348 346 345 345 346 347 347 346 347
342 343 344 345 341 333 335 335 336 341 344 346 346 345 345 346 347 346 345 340 342 341 337 346 346 346 345 346 345 344 344 345 345
342 343 344 344 337 332 332 332 332 333 337 341 342 342 344 344 345 345 343 338 339 335 336 346 345 345 346 346 346 344 344 345 345
342 344 344 344 341 335 333 332 332 331 331 331 331 332 334 335 337 339 339 340 336 332 345 347 346 345 345 345 346 346 345 345 344
343 344 344 343 343 338 341 343 342 342 341 341 341 339 333 334 334 336 338 338 337 337 341 344 343 342 343 343 343 343 344 344 344
346 346 345 344 344 343 344 343 342 343 343 343 341 341 341 342 338 333 337 340 340 341 338 339 341 340 340 339 339 339 339 341 342
348 346 346 344 342 340 340 341 340 340 341 343 342 340 339 340 340 339 339 339 342 339 340 339 338 338 338 339 339 338 338 338 338
344 345 344 345 341 339 338 337 334 337 338 340 339 337 339 337 338 338 338 338 337 337 337 338 338 337 337 337 336 335 335 336 337
342 339 340 337 336 336 336 335 333 336 335 335 336 335 337 337 337 337 336 337 336 334 335 335 336 334 335 334 335 335 335 335 335
336 336 335 336 335 335 336 335 330 332 332 333 334 334 335 335 334 335 336 334 334 334 334 334 333 333 333 333 334 335 334 334 333
337 336 337 335 334 332 332 331 330 330 332 333 333 334 336 335 335 333 333 333 332 332 332 332 332 332 332 332 332 333 332 333 332
Wind_Speed
27 18 24 39 43 35 34 33 39 21 30 30 29 32 38 34 32 32 30 25 18 21 19 14 16 17 17 12 9 11 13 8 6
27 27 28 40 40 41 37 33 38 30 29 30 30 32 31 35 34 34 34 27 26 23 21 17 15 24 20 13 8 9 9 6 4
25 32 37 41 33 43 40 37 30 29 29 30 36 34 29 32 33 36 33 32 27 27 24 20 14 18 22 15 11 9 9 8 9
24 15 11 8 18 30 36 36 32 29 32 32 31 33 31 29 30 31 34 33 31 29 25 24 17 19 21 18 15 14 16 12 12
24 20 14 7 7 7 26 31 34 31 33 40 35 32 30 27 22 24 28 34 33 34 29 27 21 19 23 23 18 18 17 17 14
24 20 14 8 12 9 11 15 26 29 31 37 32 31 33 27 26 22 22 27 32 33 33 27 27 26 25 25 21 20 20 22 18
18 16 13 10 6 8 10 12 13 16 28 33 33 32 33 28 27 26 25 21 21 30 33 33 30 30 26 26 25 19 22 24 18
21 19 14 11 4 4 6 12 18 19 17 19 26 30 31 29 24 31 30 29 26 24 27 27 29 28 27 29 25 23 22 22 17
23 20 17 11 5 3 9 5 8 12 12 17 24 25 21 29 36 38 34 29 27 28 30 29 26 28 28 26 27 25 24 19 18
24 22 17 16 6 1 2 3 4 6 7 10 22 25 21 21 19 18 28 32 35 32 30 29 30 27 27 27 27 25 27 24 23
25 24 22 18 8 8 10 8 7 5 4 3 7 13 19 23 23 19 14 16 29 34 34 33 29 27 27 25 24 26 27 29 29
27 25 22 17 12 10 8 7 8 10 11 6 3 5 1 6 13 14 17 23 12 32 47 36 28 29 29 28 27 28 30 29 30
27 25 22 20 16 12 8 6 5 6 10 12 11 10 9 6 2 8 12 23 21 26 17 15 30 22 21 24 24 22 28 30 27
29 29 25 18 12 9 6 2 2 2 3 3 3 2 4 6 5 6 9 6 10 18 11 3 5 9 11 13 15 14 16 19 19
31 28 22 19 19 17 11 7 6 4 4 5 5 4 5 2 2 3 3 3 5 4 5 11 6 4 5 7 9 10 12 15 14
23 18 22 16 15 12 10 10 8 7 8 7 8 8 5 3 5 4 3 3 3 1 4 2 4 7 6 5 6 6 5 5 7
21 18 19 17 17 14 10 7 7 8 7 8 10 6 2 2 1 2 3 4 3 3 2 3 3 2 2 2 3 3 2 0 3
25 21 21 16 12 13 10 5 3 10 5 4 3 1 4 4 4 3 0 1 3 3 2 3 2 1 1 3 5 5 5 7 8
26 22 20 16 13 9 7 6 4 5 5 5 5 6 4 4 5 2 2 1 0 1 2 2 2 5 6 6 7 8 9 11 11
27 23 16 12 9 8 5 3 4 4 6 5 9 10 8 6 5 2 2 3 4 4 3 5 6 4 4 4 5 7 7 7 6
Wind_Direction
214 198 200 213 216 212 205 208 194 222 205 205 218 217 209 214 210 211 210 210 205 206 219 227 218 216 213 216 213 222 231 222 217
234 213 204 218 211 216 210 205 207 206 200 215 222 221 216 217 215 213 212 205 209 212 219 217 232 233 221 215 223 231 238 233 233
224 202 216 214 215 200 206 198 208 208 204 210 210 223 218 219 218 217 215 213 211 216 222 230 228 215 207 210 210 222 235 237 254
148 153 156 157 205 213 212 208 206 215 214 204 204 220 221 220 218 219 219 217 215 213 216 229 221 211 200 205 215 219 239 233 234
158 159 163 175 174 97 213 202 204 203 203 206 208 214 221 224 218 221 223 218 220 216 210 221 217 214 219 222 220 234 234 248 245
119 126 134 137 173 178 166 169 204 215 219 219 229 218 224 223 219 218 223 227 223 222 217 223 225 226 233 234 244 228 231 249 252
132 140 146 160 174 191 201 204 206 207 222 228 227 226 223 226 223 224 229 230 230 223 220 223 227 231 236 245 249 249 248 252 249
150 151 161 154 153 246 259 256 246 244 230 221 224 230 227 224 226 242 233 229 228 225 226 230 238 242 244 244 246 246 240 239 238
159 158 158 154 175 255 293 285 267 266 258 230 227 223 229 227 242 227 222 232 230 229 234 234 236 237 236 235 245 248 245 241 241
165 160 161 159 173 45 4 27 326 304 267 250 236 240 235 238 243 224 225 236 245 251 241 242 232 236 239 239 242 245 247 238 246
167 169 172 170 166 126 102 81 52 15 354 286 245 244 246 242 248 240 224 233 229 230 264 245 236 236 241 241 244 244 243 238 236
168 179 184 183 166 154 136 108 72 61 62 58 55 66 168 216 228 231 208 201 259 290 272 234 231 233 236 236 236 241 242 240 236
168 175 182 181 171 168 164 132 104 85 77 68 59 58 67 63 86 225 250 230 221 297 256 223 206 224 234 235 237 241 248 245 243
164 161 167 170 168 165 170 136 118 18 349 7 1 1 31 34 49 62 76 129 218 211 224 250 263 230 233 241 253 256 261 267 259
143 143 149 158 161 170 185 179 194 221 256 267 279 290 300 288 317 100 94 125 143 178 222 221 252 245 247 256 259 269 270 256 250
155 156 164 172 182 157 152 175 186 222 240 253 275 290 287 275 278 304 338 290 165 250 220 205 247 263 262 253 271 278 276 280 247
148 148 157 161 152 159 175 212 219 210 241 252 253 279 275 282 302 296 274 314 341 351 278 217 230 230 233 258 274 309 322 138 127
152 148 154 162 167 173 186 225 222 202 233 255 228 120 89 97 95 104 55 49 75 40 77 105 88 38 54 99 85 74 92 105 108
156 159 157 153 157 167 193 243 265 218 188 199 179 153 148 99 76 85 253 246 289 78 111 124 115 116 109 94 92 97 105 109 112
164 166 171 177 182 196 225 246 172 179 186 182 156 167 165 159 136 104 27 101 97 88 117 135 139 127 112 121 120 119 119 118 114